Terminal Aerodrome Forecast
Issued by NWS Cheyenne, WY

Current Version | Previous Version | Text Only | Print | Product List | Glossary On
Versions: 1 2 3 4 5 6 7 8 9 10 11 12 13 14 15 16 17 18 19 20 21 22 23 24 25 26 27 28 29 30 31 32 33 34 35 36 37 38 39 40
000
FTUS45 KCYS 011727
TAFCYS
TAF
KCYS 011727Z 0118/0218 36011KT P6SM BKN010 OVC040
     FM011900 33014G22KT P6SM FEW012 SCT070
     FM020000 26007KT P6SM SCT150
     FM020700 27015G23KT P6SM OVC080=

USA.gov is the U.S. government's official web portal to all federal, state and local government web resources and services.